Location: Goheenville
(40.9070°N, 79.3720°W)
Time: 15:49:29
(UTC-04:00)

Cosmos 1727 Rocket - Visible Passes

Search period start: 29 July 2016 00:00
Search period end: 08 August 2016 00:00
Orbit: 960 x 997 km, 82.9° (Epoch: 28 July)

Date Brightness Start Highest point End Pass type
(mag) Time Alt. Az. Time Alt. Az. Time Alt. Az.
29 Jul 4.8 21:55:12 10° N 22:00:45 34° ENE 22:04:02 21° ESE visible
29 Jul 5.1 23:40:38 10° NNW 23:46:08 35° W 23:48:47 25° SW visible
30 Jul 4.0 22:21:11 10° N 22:27:18 62° E 22:30:27 30° SSE visible
31 Jul 6.0 00:08:00 10° NW 00:12:08 19° W 00:15:11 13° WSW visible
31 Jul 5.6 21:03:43 10° NNE 21:07:34 17° ENE 21:11:25 10° ESE visible
31 Jul 4.1 22:47:30 10° N 22:53:40 73° W 22:56:53 30° S visible
01 Aug 4.9 21:28:58 10° NNE 21:34:23 30° ENE 21:38:36 15° SE visible
01 Aug 5.0 23:14:11 10° NNW 23:19:52 39° W 23:23:20 21° SW visible
02 Aug 4.1 21:54:53 10° N 22:00:57 56° E 22:05:05 21° SSE visible
02 Aug 5.9 23:41:25 10° NW 23:45:53 21° W 23:49:50 12° SW visible
03 Aug 4.0 22:21:09 10° N 22:27:22 81° W 22:31:35 22° S visible
04 Aug 6.5 00:10:39 10° WNW 00:11:44 10° WNW 00:12:48 10° W visible
04 Aug 5.0 21:02:47 10° NNE 21:07:59 28° ENE 21:13:12 10° SE visible
04 Aug 4.9 22:47:47 10° NNW 22:53:35 44° W 22:58:08 16° SSW visible
05 Aug 4.3 21:28:36 10° N 21:34:37 50° ENE 21:39:58 13° SSE visible
05 Aug 5.9 23:14:54 10° NW 23:19:38 24° W 23:24:24 10° SW visible
06 Aug 4.0 21:54:49 10° N 22:01:03 89° WSW 22:06:35 14° S visible
06 Aug 6.5 23:43:17 10° WNW 23:45:31 12° WNW 23:47:44 10° W visible
07 Aug 4.8 22:21:23 10° NNW 22:27:18 49° W 22:33:15 10° SSW visible
